User: anonymous   Login
Location: Unspecified
(0.0000°N, 0.0000°E)
Time: 07:06:33
(UTC+00:00)
Language:

SEEDS - Orbit

View from above orbital plane
View from above orbital plane
View from above satellite
View from above satellite

Ground track
Ground track

The orbit data is extracted from the following two-line orbital elements,

1 32791U 08021J   19138.89626435  .00000416  00000-0  47580-4 0  9997
2 32791  97.5284 146.0046 0012920 347.7307  12.3595 14.90801970599529
Epoch (UTC): 18 May 2019 21:30:37
Eccentricity: 0.0012920
inclination: 97.5284°
perigee height: 586 km
apogee height: 604 km
right ascension of ascending node: 146.0046°
argument of perigee: 347.7307°
revolutions per day: 14.90801970
mean anomaly at epoch: 12.3595°
orbit number at epoch: 59952

The dashed part of the orbit path shows where the satellite is in the earth's shadow,  

DLR